EDW22 MDPP-MKJS

Flight info

Callsign EDW22
Flight time N/A
Altitude 31000
Route RETAK3C RETAK UM348 ALBBE DCT BODLO DCT BYGON UL599 MLY A301 SAVEM UW6 SIA LENAR7
Aircraft A359/H-SABDE2E3GHIJ2J3J4J5M1P2RWXYZ/LB1D1

Departure

Time 2026-05-06 13:22
Airport Gregorio Luperon International Airport (MDPP)

Arrival

Time N/A
Airport Sangster International Airport (MKJS)
Time Latitude Longitude Altitude Speed Heading
2026-05-06 12:58 19.75630 -70.56432 64 ft 0 kts 209°
2026-05-06 13:10 19.75638 -70.56428 64 ft 2 kts 209°
2026-05-06 13:11 19.75651 -70.56419 64 ft 2 kts 210°
2026-05-06 13:11 19.75664 -70.56411 63 ft 2 kts 221°
2026-05-06 13:11 19.75674 -70.56400 63 ft 2 kts 233°
2026-05-06 13:11 19.75682 -70.56387 63 ft 2 kts 243°
2026-05-06 13:12 19.75688 -70.56372 63 ft 2 kts 253°
2026-05-06 13:12 19.75690 -70.56365 63 ft 1 kts 258°
2026-05-06 13:12 19.75690 -70.56363 63 ft 0 kts 258°
2026-05-06 13:14 19.75689 -70.56369 63 ft 5 kts 258°
2026-05-06 13:15 19.75685 -70.56429 63 ft 8 kts 268°
2026-05-06 13:15 19.75676 -70.56497 63 ft 9 kts 257°
2026-05-06 13:15 19.75655 -70.56578 62 ft 13 kts 253°
2026-05-06 13:15 19.75627 -70.56680 61 ft 15 kts 253°
2026-05-06 13:16 19.75594 -70.56794 59 ft 17 kts 252°
2026-05-06 13:16 19.75555 -70.56923 58 ft 19 kts 252°
2026-05-06 13:16 19.75537 -70.57040 57 ft 14 kts 289°
2026-05-06 13:16 19.75597 -70.57121 55 ft 13 kts 311°
2026-05-06 13:17 19.75662 -70.57196 54 ft 14 kts 313°
2026-05-06 13:17 19.75695 -70.57288 54 ft 13 kts 262°
2026-05-06 13:17 19.75667 -70.57420 56 ft 21 kts 253°
2026-05-06 13:17 19.75623 -70.57565 58 ft 20 kts 252°
2026-05-06 13:18 19.75581 -70.57709 60 ft 19 kts 253°
2026-05-06 13:18 19.75544 -70.57842 61 ft 19 kts 253°
2026-05-06 13:18 19.75504 -70.57979 61 ft 19 kts 252°
2026-05-06 13:18 19.75464 -70.58114 61 ft 19 kts 252°
2026-05-06 13:19 19.75426 -70.58247 61 ft 15 kts 253°
2026-05-06 13:19 19.75405 -70.58332 61 ft 7 kts 266°
2026-05-06 13:19 19.75408 -70.58370 61 ft 1 kts 248°
2026-05-06 13:19 19.75395 -70.58374 61 ft 2 kts 167°
2026-05-06 13:20 19.75390 -70.58354 61 ft 3 kts 57°
2026-05-06 13:20 19.75396 -70.58347 61 ft 2 kts 51°
2026-05-06 13:20 19.75408 -70.58325 61 ft 2 kts 62°
2026-05-06 13:20 19.75409 -70.58323 61 ft 0 kts 63°
2026-05-06 13:21 19.75448 -70.58212 61 ft 48 kts 73°
2026-05-06 13:21 19.75606 -70.57648 59 ft 111 kts 72°
2026-05-06 13:21 19.75900 -70.56648 58 ft 166 kts 75°
2026-05-06 13:22 19.76240 -70.55479 802 ft 154 kts 70°
2026-05-06 13:22 19.76582 -70.54533 1654 ft 136 kts 76°
2026-05-06 13:22 19.76847 -70.53550 2076 ft 145 kts 78°
2026-05-06 13:22 19.77126 -70.52472 2422 ft 159 kts 78°
2026-05-06 13:23 19.77546 -70.51334 2764 ft 178 kts 55°
2026-05-06 13:23 19.78680 -70.50665 3128 ft 203 kts 11°
2026-05-06 13:23 19.80135 -70.50814 3539 ft 220 kts 354°
2026-05-06 13:23 19.81690 -70.50781 3916 ft 228 kts 17°
2026-05-06 13:24 19.83259 -70.50299 4281 ft 243 kts 22°
2026-05-06 13:24 19.84926 -70.49704 4710 ft 260 kts 22°
2026-05-06 13:24 19.86702 -70.49085 5205 ft 275 kts 21°
2026-05-06 13:24 19.88547 -70.48471 5707 ft 279 kts 20°
2026-05-06 13:25 19.90433 -70.47868 5962 ft 282 kts 18°
2026-05-06 13:25 19.92380 -70.47432 6317 ft 291 kts 10°
2026-05-06 13:25 19.94392 -70.47248 7149 ft 291 kts
2026-05-06 13:25 19.96402 -70.47173 7926 ft 293 kts 358°
2026-05-06 13:26 19.98381 -70.47778 8584 ft 300 kts 328°
2026-05-06 13:26 19.99861 -70.49300 9337 ft 299 kts 300°
2026-05-06 13:26 20.00539 -70.51340 10049 ft 297 kts 274°
2026-05-06 13:26 20.00607 -70.53524 10637 ft 303 kts 269°
2026-05-06 13:27 20.00636 -70.55816 10978 ft 318 kts 270°
2026-05-06 13:27 20.00677 -70.58227 11337 ft 332 kts 270°
2026-05-06 13:27 20.00732 -70.60702 11943 ft 337 kts 271°
2026-05-06 13:27 20.00793 -70.63182 12619 ft 339 kts 271°
2026-05-06 13:28 20.00859 -70.65678 13298 ft 341 kts 272°
2026-05-06 13:28 20.00930 -70.68207 13981 ft 343 kts 272°
2026-05-06 13:28 20.01002 -70.70732 14628 ft 345 kts 272°
2026-05-06 13:28 20.01075 -70.73270 15252 ft 347 kts 272°
2026-05-06 13:29 20.01148 -70.75835 15889 ft 349 kts 272°
2026-05-06 13:29 20.01222 -70.78415 16525 ft 350 kts 272°
2026-05-06 13:29 20.01295 -70.80982 17159 ft 352 kts 272°
2026-05-06 13:29 20.01367 -70.83566 17784 ft 353 kts 272°
2026-05-06 13:30 20.01439 -70.86192 18361 ft 355 kts 272°
2026-05-06 13:30 20.01511 -70.88805 18903 ft 359 kts 272°
2026-05-06 13:30 20.01585 -70.91462 19423 ft 362 kts 273°
2026-05-06 13:30 20.01660 -70.94141 19934 ft 365 kts 273°
2026-05-06 13:31 20.01736 -70.96865 20439 ft 369 kts 274°
2026-05-06 13:31 20.01812 -70.99568 20936 ft 371 kts 274°
2026-05-06 13:31 20.01890 -71.02339 21423 ft 374 kts 274°
2026-05-06 13:31 20.01965 -71.05102 21895 ft 377 kts 274°
2026-05-06 13:32 20.02041 -71.07880 22357 ft 380 kts 274°
2026-05-06 13:32 20.02123 -71.10705 22832 ft 383 kts 275°
2026-05-06 13:32 20.02387 -71.13491 23334 ft 383 kts 281°
2026-05-06 13:32 20.02918 -71.16258 23850 ft 383 kts 287°
2026-05-06 13:33 20.03692 -71.18966 24381 ft 383 kts 290°
2026-05-06 13:33 20.04535 -71.21648 24849 ft 385 kts 290°
2026-05-06 13:33 20.05389 -71.24339 25304 ft 387 kts 290°
2026-05-06 13:33 20.06253 -71.27058 25756 ft 389 kts 290°
2026-05-06 13:34 20.07123 -71.29800 26200 ft 391 kts 290°
2026-05-06 13:34 20.07984 -71.32526 26645 ft 392 kts 290°
2026-05-06 13:34 20.08849 -71.35265 27110 ft 392 kts 290°
2026-05-06 13:34 20.09714 -71.38010 27529 ft 393 kts 290°
2026-05-06 13:35 20.10591 -71.40788 27941 ft 395 kts 291°
2026-05-06 13:35 20.11474 -71.43548 28328 ft 397 kts 291°
2026-05-06 13:35 20.12355 -71.46308 28707 ft 398 kts 291°
2026-05-06 13:35 20.13234 -71.49085 29095 ft 399 kts 290°
2026-05-06 13:36 20.14116 -71.51881 29454 ft 401 kts 291°
2026-05-06 13:36 20.15005 -71.54714 29748 ft 404 kts 291°
2026-05-06 13:36 20.15899 -71.57570 30032 ft 407 kts 291°
2026-05-06 13:36 20.16792 -71.60420 30315 ft 409 kts 291°
2026-05-06 13:37 20.17696 -71.63302 30624 ft 411 kts 291°
2026-05-06 13:37 20.18594 -71.66178 30915 ft 413 kts 291°
2026-05-06 13:37 20.19557 -71.69038 31053 ft 414 kts 294°
2026-05-06 13:38 20.21839 -71.74674 31067 ft 413 kts 296°
2026-05-06 13:38 20.24160 -71.80218 31072 ft 412 kts 297°
2026-05-06 13:39 20.26494 -71.85794 31070 ft 413 kts 297°
2026-05-06 13:39 20.28733 -71.91402 31070 ft 413 kts 295°
2026-05-06 13:40 20.30926 -71.97086 31070 ft 413 kts 296°
2026-05-06 13:40 20.33104 -72.02706 31069 ft 413 kts 296°
2026-05-06 13:41 20.35293 -72.08350 31068 ft 413 kts 296°
2026-05-06 13:41 20.37481 -72.13996 31067 ft 413 kts 296°
2026-05-06 13:42 20.39587 -72.19714 31069 ft 415 kts 292°
2026-05-06 13:42 20.40985 -72.25660 31070 ft 415 kts 284°
2026-05-06 13:43 20.41550 -72.31819 31072 ft 420 kts 276°
2026-05-06 13:43 20.41513 -72.38018 31071 ft 420 kts 275°
2026-05-06 13:44 20.41433 -72.44231 31069 ft 419 kts 275°
2026-05-06 13:44 20.41354 -72.50409 31075 ft 419 kts 275°
2026-05-06 13:45 20.41274 -72.56627 31074 ft 419 kts 275°
2026-05-06 13:45 20.41151 -72.65894 31074 ft 419 kts 275°
2026-05-06 13:46 20.41064 -72.72089 31073 ft 419 kts 275°
2026-05-06 13:46 20.40977 -72.78301 31071 ft 419 kts 275°
2026-05-06 13:47 20.40889 -72.84498 31073 ft 419 kts 275°
2026-05-06 13:47 20.40799 -72.90704 31069 ft 421 kts 275°
2026-05-06 13:48 20.40707 -72.96902 31070 ft 419 kts 276°
2026-05-06 13:48 20.40957 -73.03060 31069 ft 416 kts 282°
2026-05-06 13:49 20.41670 -73.09170 31071 ft 418 kts 283°
2026-05-06 13:49 20.42425 -73.15329 31076 ft 418 kts 283°
2026-05-06 13:50 20.43169 -73.21435 31082 ft 417 kts 283°